This is the latest recevied weather packets stored in our database for station/object WD7CGF. If no packets are shown the sender has not sent any weather packets the latest 10 day(s).
| Time | Temp. | Humidity | Pressure | Rain* | Wind** | Luminosity | Snow |
|---|---|---|---|---|---|---|---|
| 1788139730 | 20° C | 54% | 1014.2 hPa | 0 mm | - | - | - |
| 1788139124 | 20.56° C | 54% | 1014.2 hPa | 0 mm | - | - | - |
| 1788138517 | 20.56° C | 54% | 1014.3 hPa | 0 mm | - | - | - |
| 1788137930 | 20.56° C | 53% | 1014.3 hPa | 0 mm | - | - | - |
| 1788137321 | 21.11° C | 53% | 1014.3 hPa | 0 mm | - | - | - |
| 1788136719 | 21.11° C | 52% | 1014.3 hPa | 0 mm | - | - | - |
| 1788136113 | 21.11° C | 50% | 1014.4 hPa | 0 mm | - | - | - |
| 1788135526 | 21.67° C | 49% | 1014.4 hPa | 0 mm | - | - | - |
| 1788134924 | 21.67° C | 49% | 1014.2 hPa | 0 mm | - | - | - |
| 1788134323 | 22.22° C | 48% | 1014.2 hPa | 0 mm | - | - | - |
| 1788133716 | 22.22° C | 47% | 1014.2 hPa | 0 mm | - | - | - |
| 1788133131 | 22.22° C | 47% | 1014 hPa | 0 mm | - | - | - |
| 1788132523 | 22.78° C | 47% | 1014.2 hPa | 0 mm | - | - | - |
| 1788131920 | 22.78° C | 46% | 1014.2 hPa | 0 mm | - | - | - |
| 1788131313 | 22.78° C | 46% | 1014.5 hPa | 0 mm | - | - | - |
| 1788130725 | 22.78° C | 46% | 1014.6 hPa | 0 mm | - | - | - |
| 1788130118 | 22.78° C | 47% | 1014.6 hPa | 0 mm | - | - | - |
| 1788129530 | 22.78° C | 45% | 1014.8 hPa | 0 mm | - | - | - |
| 1788128918 | 22.78° C | 43% | 1015 hPa | 0 mm | - | - | - |
| 1788128313 | 22.78° C | 45% | 1015 hPa | 0 mm | - | - | - |
| 1788127727 | 22.22° C | 45% | 1015.2 hPa | 0 mm | - | - | - |
| 1788127124 | 22.22° C | 45% | 1015.4 hPa | 0 mm | - | - | - |
| 1788126514 | 22.22° C | 46% | 1015.4 hPa | 0 mm | - | - | - |
| 1788125931 | 22.22° C | 45% | 1015.6 hPa | 0 mm | - | - | - |
| 1788125323 | 22.22° C | 46% | 1015.7 hPa | 0 mm | - | - | - |
* Rain latest hour (hover to see other rain measurements)
** Current wind speed in m/s (hover to see current wind gust speed)